2023/07/19 00:00:00, 0.1,24.3
2023/07/19 00:10:00, 0.1,24.5
2023/07/19 00:20:00, 0.1,24.3
2023/07/19 00:30:00, 0.1,24.6
2023/07/19 00:40:00, 0.1,24.3
2023/07/19 00:50:00, 0.1,24.2
2023/07/19 01:00:00, 0.1,24.3
2023/07/19 01:10:00, 0.1,24.3
2023/07/19 01:20:00, 0.1,24.5
2023/07/19 01:30:00, 0.1,24.6
2023/07/19 01:40:00, 0.0,24.8
2023/07/19 01:50:00, 0.0,24.7
2023/07/19 02:00:00, 0.0,24.9
2023/07/19 02:10:00, 0.0,24.6
2023/07/19 02:20:00, 0.0,25.1
2023/07/19 02:30:00, 0.1,25.3
2023/07/19 02:40:00, 5.5,24.9
2023/07/19 02:50:00, 9.5,24.9
2023/07/19 03:00:00,10.2,25.1
2023/07/19 03:10:00,12.7,25.3
2023/07/19 03:20:00,13.9,25.5
2023/07/19 03:30:00,14.0,25.2
2023/07/19 03:40:00,14.3,25.4
2023/07/19 03:50:00,14.4,25.4
2023/07/19 04:00:00,14.5,25.4
2023/07/19 04:10:00,14.9,25.5
2023/07/19 04:20:00,15.3,24.7
2023/07/19 04:30:00,15.6,24.6
2023/07/19 04:40:00,15.3,24.9
2023/07/19 04:50:00, 7.0,25.1
2023/07/19 05:00:00, 8.0,24.8
2023/07/19 05:10:00, 0.1,24.5
2023/07/19 05:20:00, 0.1,25.6
2023/07/19 05:30:00, 0.1,25.7
2023/07/19 05:40:00, 0.1,24.8
2023/07/19 05:50:00, 0.0,24.0
2023/07/19 06:00:00, 2.5,23.4
2023/07/19 06:10:00,11.9,23.3
2023/07/19 06:20:00,13.1,23.7
2023/07/19 06:30:00,13.8,23.6
2023/07/19 06:40:00,14.0,23.4
2023/07/19 06:50:00,14.4,24.0
2023/07/19 07:00:00,14.5,24.0
2023/07/19 07:10:00,14.6,24.1
2023/07/19 07:20:00,14.3,24.2
2023/07/19 07:30:00,13.6,23.9
2023/07/19 07:40:00,13.1,23.5
2023/07/19 07:50:00,13.2,23.5
2023/07/19 08:00:00,13.5,23.7
2023/07/19 08:10:00,13.8,23.6
2023/07/19 08:20:00,14.0,23.2
2023/07/19 08:30:00,14.0,23.5
2023/07/19 08:40:00,13.9,23.8
2023/07/19 08:50:00,14.2,24.6
2023/07/19 09:00:00,14.5,24.7
2023/07/19 09:10:00,14.8,24.9
2023/07/19 09:20:00,14.8,24.9
2023/07/19 09:30:00,14.2,24.9
2023/07/19 09:40:00,14.4,25.1
2023/07/19 09:50:00,14.6,24.8
2023/07/19 10:00:00,14.5,24.4
2023/07/19 10:10:00,14.8,24.2
2023/07/19 10:20:00,13.6,23.3
2023/07/19 10:30:00,14.8,23.5
2023/07/19 10:40:00,14.3,23.5
2023/07/19 10:50:00,13.6,23.4
2023/07/19 11:00:00,13.0,23.2
2023/07/19 11:10:00,13.1,23.1
2023/07/19 11:20:00,13.4,23.1
2023/07/19 11:30:00,13.4,23.0
2023/07/19 11:40:00,13.9,23.4
2023/07/19 11:50:00,14.0,23.5
2023/07/19 12:00:00,14.7,23.7
2023/07/19 12:10:00,14.8,24.3
2023/07/19 12:20:00,15.0,24.4
2023/07/19 12:30:00,15.7,24.4
2023/07/19 12:40:00,14.8,23.9
2023/07/19 12:50:00,13.9,24.5
2023/07/19 13:00:00,13.7,24.3
2023/07/19 13:10:00,13.4,24.3
2023/07/19 13:20:00,13.3,24.0
2023/07/19 13:30:00,13.7,24.2
2023/07/19 13:40:00,13.9,25.0
2023/07/19 13:50:00,14.2,25.3
2023/07/19 14:00:00,14.5,25.0
2023/07/19 14:10:00,14.6,24.6
2023/07/19 14:20:00,14.6,25.0
2023/07/19 14:30:00,14.9,24.7
2023/07/19 14:40:00,14.7,24.8
2023/07/19 14:50:00,14.8,24.0
2023/07/19 15:00:00,---,23.3
2023/07/19 15:10:00,14.4,23.6
2023/07/19 15:20:00,14.4,23.6
2023/07/19 15:30:00,14.3,23.2
2023/07/19 15:40:00,13.9,23.3
2023/07/19 15:50:00,13.7,23.6
2023/07/19 16:00:00,13.2,22.8
2023/07/19 16:10:00,13.3,22.6
2023/07/19 16:20:00,13.3,22.5
2023/07/19 16:30:00,13.1,22.7
2023/07/19 16:40:00,13.6,22.9
2023/07/19 16:50:00,13.6,22.6
2023/07/19 17:00:00,13.5,22.6
2023/07/19 17:10:00,13.7,22.6
2023/07/19 17:20:00,13.9,22.7
2023/07/19 17:30:00,14.4,22.8
2023/07/19 17:40:00,14.8,23.0
2023/07/19 17:50:00,14.6,22.9
2023/07/19 18:00:00,14.4,23.2
2023/07/19 18:10:00,14.3,23.4
2023/07/19 18:20:00,13.9,23.5
2023/07/19 18:30:00,13.5,23.2
2023/07/19 18:40:00,13.1,22.9
2023/07/19 18:50:00,13.1,22.6
2023/07/19 19:00:00,12.5,22.7
2023/07/19 19:10:00,10.0,22.5
2023/07/19 19:20:00, 0.9,22.6
2023/07/19 19:30:00, 0.1,22.3
2023/07/19 19:40:00, 0.1,22.0
2023/07/19 19:50:00, 0.1,21.7
2023/07/19 20:00:00, 0.1,22.2
2023/07/19 20:10:00, 0.2,21.9
2023/07/19 20:20:00, 0.3,21.9
2023/07/19 20:30:00, 0.2,21.8
2023/07/19 20:40:00, 0.2,21.8
2023/07/19 20:50:00, 0.2,21.9
2023/07/19 21:00:00, 0.2,21.8
2023/07/19 21:10:00, 0.2,21.8
2023/07/19 21:20:00, 0.2,21.9
2023/07/19 21:30:00, 0.2,21.8
2023/07/19 21:40:00, 0.2,21.5
2023/07/19 21:50:00, 0.2,21.6
2023/07/19 22:00:00, 0.2,21.6
2023/07/19 22:10:00, 0.2,21.5
2023/07/19 22:20:00, 0.2,21.5
2023/07/19 22:30:00, 0.2,21.5
2023/07/19 22:40:00, 0.2,21.4
2023/07/19 22:50:00, 0.2,21.6
2023/07/19 23:00:00, 0.2,21.5
2023/07/19 23:10:00, 0.1,21.5
2023/07/19 23:20:00, 0.2,21.4
2023/07/19 23:30:00, 0.2,21.5
2023/07/19 23:40:00, 0.2,21.5
2023/07/19 23:50:00, 0.2,21.2
